DW4558 Weather Reports


Display with metric or nautical units.
time (UTC)temp
F
wind
direction
speed
MPH
gust
MPH
rain 1hr
in
rain 24hr
in
rain mn
in
humidity
%
barometer
mb
20260505183017 57 211 6.0 14.0 0.07 0.09 0.09 93 998.4
20260505181514 58 257 10.0 18.0 0.08 0.08 0.08 90 998.7
20260505180017 60 269 10.0 14.0 0.04 0.04 0.04 87 998.5
20260505174518 61 235 7.0 15.0 0.03 0.03 0.03 85 998.1
20260505173017 63 296 18.0 29.0 0.02 0.02 0.02 74 998.6
20260505171516 67 277 11.0 30.0 0.00 0.00 0.00 64 998.0
20260505170010 68 215 14.0 31.0 0.00 0.00 0.00 63 997.8
20260505164508 67 240 18.0 29.0 0.00 0.00 0.00 61 998.4
20260505163006 70 231 16.0 32.0 0.00 0.00 0.00 57 998.5
20260505161502 67 215 19.0 36.0 0.00 0.00 0.00 59 999.0
20260505153106 69 245 14.0 28.0 0.00 0.00 0.00 53 999.1
20260505151602 68 276 23.0 35.0 0.00 0.00 0.00 55 999.0
20260505124534 58 288 5.0 10.0 0.00 0.00 0.00 69 1000.4
20260505123023 57 284 5.0 10.0 0.00 0.00 0.00 69 1000.5
20260505121519 57 298 4.0 8.0 0.00 0.00 0.00 70 1000.5
20260505120017 56 269 8.0 13.0 0.00 0.00 0.00 72 1000.7
20260505114510 54 295 3.0 8.0 0.00 0.00 0.00 80 1000.7
20260505113006 51 82 3.0 5.0 0.00 0.00 0.00 92 1000.6
20260505111503 47 200 2.0 5.0 0.00 0.00 0.00 95 1000.8
20260505101555 40 104 3.0 7.0 0.00 0.00 0.00 96 1001.4
20260505100054 39 113 3.0 8.0 0.00 0.00 0.00 95 1001.5
20260505094549 39 125 4.0 8.0 0.00 0.00 0.00 95 1001.4
20260505093048 39 87 4.0 8.0 0.00 0.00 0.00 94 1001.4
20260505091605 39 101 5.0 7.0 0.00 0.00 0.00 94 1001.5
20260505090045 39 91 5.0 7.0 0.00 0.00 0.00 94 1001.7
20260505084540 39 82 4.0 8.0 0.00 0.00 0.00 93 1001.8
20260505083039 40 87 4.0 7.0 0.00 0.00 0.00 93 1001.8
20260505081539 40 98 4.0 6.0 0.00 0.00 0.00 92 1001.8
20260505080034 41 102 6.0 9.0 0.00 0.00 0.00 91 1001.8
20260505074530 42 127 8.0 10.0 0.00 0.00 0.00 91 1001.9
20260505073031 42 116 7.0 10.0 0.00 0.00 0.00 90 1001.7
20260505071524 44 122 4.0 9.0 0.00 0.00 0.00 89 1002.1
20260505070022 45 125 6.0 8.0 0.00 0.00 0.00 87 1002.3
20260505064520 46 138 6.0 11.0 0.00 0.00 0.00 87 1002.5
20260505063018 44 123 7.0 10.0 0.00 0.00 0.00 90 1002.8
20260505061515 43 138 5.0 8.0 0.00 0.00 0.00 89 1003.0
20260505060014 43 109 5.0 7.0 0.00 0.00 0.00 89 1003.1
20260505054512 43 163 4.0 7.0 0.00 0.00 0.00 88 1003.5
20260505053011 43 119 2.0 5.0 0.00 0.00 0.00 87 1003.5
20260505051530 43 120 3.0 8.0 0.00 0.00 0.00 86 1003.5
20260505041501 44 103 2.0 4.0 0.00 0.00 0.00 85 1004.0
20260505040057 45 141 3.0 7.0 0.00 0.00 0.00 84 1003.9
20260505034555 46 171 3.0 4.0 0.00 0.00 0.00 82 1004.1
20260505033056 47 190 2.0 8.0 0.00 0.00 0.00 81 1004.1
20260505031558 47 216 5.0 10.0 0.00 0.00 0.00 80 1004.2
20260505030054 47 230 4.0 8.0 0.00 0.00 0.00 79 1004.3
20260505024555 47 234 7.0 11.0 0.00 0.00 0.00 78 1004.5
20260505023056 48 214 6.0 15.0 0.00 0.00 0.00 77 1004.6
20260505021553 48 265 11.0 19.0 0.00 0.00 0.00 77 1004.6
20260505014553 47 225 12.0 18.0 0.00 0.00 0.00 77 1004.6
20260505013100 47 223 8.0 16.0 0.00 0.00 0.00 77 1004.7
20260505011553 48 244 11.0 18.0 0.00 0.00 0.00 76 1004.8
20260505010108 48 262 11.0 24.0 0.00 0.00 0.00 77 1004.6
20260505004550 48 282 11.0 19.0 0.00 0.00 0.00 77 1004.5
20260505003055 48 249 9.0 17.0 0.00 0.00 0.00 76 1004.3
20260505001549 48 272 11.0 20.0 0.00 0.00 0.00 76 1003.8
20260505000049 48 236 10.0 21.0 0.00 0.00 0.00 75 1003.7
20260504234548 48 241 13.0 24.0 0.00 0.00 0.00 75 1003.5
20260504233104 48 265 16.0 25.0 0.00 0.00 0.00 74 1003.3
20260504231549 48 243 14.0 25.0 0.00 0.00 0.00 74 1003.0
20260504230054 48 236 11.0 20.0 0.00 0.00 0.00 74 1002.7
20260504224550 48 286 14.0 23.0 0.00 0.00 0.00 74 1002.6
20260504223046 48 239 11.0 27.0 0.00 0.00 0.00 74 1002.5
20260504221546 49 255 14.0 26.0 0.00 0.00 0.00 74 1002.4
20260504220045 49 266 16.0 27.0 0.00 0.00 0.00 74 1002.6
20260504214553 50 252 21.0 33.0 0.00 0.00 0.00 71 1002.5
20260504213045 51 271 21.0 33.0 0.00 0.00 0.00 69 1002.5
20260504211544 52 277 12.0 27.0 0.00 0.00 0.00 69 1002.6
20260504210045 51 265 17.0 29.0 0.00 0.00 0.00 68 1002.4
20260504204548 52 360 15.0 33.0 0.00 0.00 0.00 65 1002.3
20260504203055 52 281 17.0 31.0 0.00 0.00 0.00 68 1002.3
20260504201541 52 360 14.0 26.0 0.00 0.00 0.00 69 1002.0
20260504200041 52 271 21.0 29.0 0.00 0.00 0.00 68 1001.9
20260504194539 52 360 14.0 28.0 0.00 0.00 0.00 69 1002.0
20260504193038 51 250 19.0 28.0 0.00 0.00 0.00 70 1002.1
20260504191540 51 259 17.0 28.0 0.00 0.00 0.00 68 1002.1
20260504190054 51 244 10.0 29.0 0.00 0.00 0.00 68 1002.2
20260504184537 52 291 12.0 34.0 0.00 0.00 0.00 66 1002.1